Miscellaneous Local Product
Issued by NWS North Platte, NE

Home | Current Version | Previous Version | Text Only | Print | Product List | Glossary On
Versions: 1 2 3 4 5 6 7 8 9 10 11 12 13 14 15 16 17 18 19 20 21 22 23 24 25 26 27 28 29 30 31 32 33 34 35 36 37 38 39 40 41 42 43 44 45 46 47 48 49 50
000
AXUS43 KLBF 030710
MISLBF


WESTERN AND NORTH CENTRAL NEBRASKA HOURLY WEATHER ROUNDUP
NATIONAL WEATHER SERVICE NORTH PLATTE NE
200 AM CDT THU SEP 03 2015

NOTE: "FAIR" INDICATES FEW OR NO CLOUDS BELOW 12,000 FEET WITH NO
SIGNIFICANT WEATHER AND/OR OBSTRUCTIONS TO VISIBILITY.

NOTE: STATIONS NOT REPORTING VARIABLES SUCH AS SKY/WEATHER OR
PRESSURE ARE PROVIDED BY THE NEBRASKA DEPARTMENT OF
ROADS...RAWS...AND APRS NETWORKS...AND ARE NOT UNDER
NATIONAL WEATHER SERVICE QUALITY CONTROL.

...OBSERVATIONS IN AND NEAR THE EASTERN PANHANDLE OF NEBRASKA...

CITY           SKY/WX    TMP DP  RH WIND       PRES   REMARKS
PINE RIDGE     CLEAR     76  50  40 S13       29.84F
CHADRON        CLEAR     64  46  52 CALM      29.83S
ALLIANCE       CLEAR     61  51  70 SE6       29.91S
SIDNEY         PTCLDY    60  47  61 SW7       29.95F
CRESCENT LAKE    N/A     68  56  65 SE3         N/A
BIG SPRINGS      N/A     70  58  66 CALM        N/A
$$

...OBSERVATIONS IN NORTH CENTRAL NEBRASKA...

CITY           SKY/WX    TMP DP  RH WIND       PRES   REMARKS
VALENTINE      CLEAR     75  61  61 S15       29.82F
THEDFORD       CLEAR     65  61  88 CALM      29.87S
AINSWORTH      CLEAR     70  62  74 S9        29.84S
O`NEILL        CLEAR     71  68  92 SE6       29.83F
ORD            CLEAR     66  64  93 CALM      29.83S
BROKEN BOW     CLEAR     63  60  90 CALM      29.85F
SPRINGVIEW       N/A     73  63  71 CALM        N/A
SARGENT          N/A     66  63  91 CALM        N/A
CHAMBERS         N/A     69  66  90 S3          N/A
EWING            N/A     69  63  81 CALM        N/A
$$

...OBSERVATIONS IN SOUTHWEST NEBRASKA AND FAR NORTHEAST COLORADO...

CITY           SKY/WX    TMP DP  RH WIND       PRES   REMARKS
WRAY           CLOUDY    61  52  71 W5        29.90S
HOLYOKE        FAIR      64  59  82 CALM      29.90F
IMPERIAL       CLEAR     68  56  65 CALM      29.86F
OGALLALA       CLEAR     70  58  65 E5        29.87F
NORTH PLATTE   PTCLDY    66  63  90 E6        29.85F
MCCOOK         PTCLDY    75  57  53 S6        29.83F
LEXINGTON      CLEAR     67  63  86 E3        29.84S
PAXTON           N/A     71  61  71 CALM        N/A
BRADY            N/A     68  62  82 CALM        N/A
CALLAWAY         N/A     64  62  92 S5          N/A
$$

...OBSERVATIONS IN CENTRAL LINCOLN COUNTY AREA...

CITY           SKY/WX    TMP DP  RH WIND       PRES   REMARKS
N.P. AIRPORT   PTCLDY    66  63  90 E6        29.85F
N.P. DOWNTOWN    N/A     72  66  82 CALM        N/A
N.P. HILLCREST   N/A     70  64  82 E9          N/A
$$

...SOME OBSERVATIONS FROM AROUND THE REGION...

CITY           SKY/WX    TMP DP  RH WIND       PRES   REMARKS
DENVER         PTCLDY    70  43  37 SW12      30.02F
LARAMIE        MOCLDY    53  41  63 W7        30.17F
CHEYENNE       MOCLDY    65  44  46 W10       30.08S
SCOTTSBLUFF    PTCLDY    67  51  56 E6        29.91S
RAPID CITY     CLEAR     67  48  50 SE3       29.79F
PIERRE         CLEAR     78  58  49 S8        29.71S
WINNER         FAIR      79  59  50 S14       29.77S
SIOUX FALLS    CLEAR     72  70  93 SE6       29.83F
OMAHA          CLEAR     77  70  79 S12       29.86F
GRAND ISLAND   CLEAR     73  64  73 S9        29.84F
KANSAS CITY    PTCLDY    75  68  78 S10       29.94F
WICHITA        PTCLDY    76  63  64 S12       29.92F
HAYS           PTCLDY    79  57  47 S10       29.88S
LIBERAL        PTCLDY    73  54  49 S10       29.94F
GOODLAND       PTCLDY    75  55  49 S14       29.90F
$$



USA.gov is the U.S. government's official web portal to all federal, state and local government web resources and services.